Location: Milton
(43.5183°N, 79.8775°W)
Time: 03:42:38
(UTC+00:00)

PCSat - Visible Passes

Search period start: 26 March 2023 00:00
Search period end: 05 April 2023 00:00
Orbit: 784 x 794 km, 67.1° (Epoch: 25 March)

Date Brightness Start Highest point End Pass type
(mag) Time Alt. Az. Time Alt. Az. Time Alt. Az.
26 Mar 12.4 04:25:05 10° NNE 04:25:20 10° NNE 04:25:20 10° NNE visible
27 Mar 12.4 00:20:20 10° NW 00:21:42 11° NNW 00:23:04 10° NNW visible
27 Mar 12.4 05:34:52 10° NNW 05:35:22 12° NNW 05:35:22 12° NNW visible
28 Mar 12.3 05:03:46 10° NNW 05:04:45 14° N 05:04:45 14° N visible
29 Mar 12.2 04:32:45 10° N 04:34:09 15° N 04:34:09 15° N visible
30 Mar 12.1 04:01:48 10° N 04:03:34 15° NNE 04:03:34 15° NNE visible
30 Mar 12.4 05:44:02 10° NNW 05:44:14 11° NNW 05:44:14 11° NNW visible
31 Mar 12.1 03:31:00 10° N 03:32:59 13° NNE 03:32:59 13° NNE visible
31 Mar 12.2 05:12:47 10° NNW 05:13:40 15° NNW 05:13:40 15° NNW visible
01 Apr 12.1 03:00:38 10° NNE 03:01:55 11° NNE 03:02:25 11° NE visible
01 Apr 12.0 04:41:35 10° NNW 04:43:06 18° NNW 04:43:06 18° NNW visible
02 Apr 11.8 04:10:26 10° NNW 04:12:33 21° N 04:12:33 21° N visible
03 Apr 11.6 03:39:20 10° NNW 03:42:01 22° NNE 03:42:01 22° NNE visible
03 Apr 12.3 05:22:15 10° NW 05:22:41 12° NW 05:22:41 12° NW visible
04 Apr 11.5 03:08:18 10° N 03:11:30 20° NNE 03:11:30 20° NNE visible
04 Apr 12.0 04:50:53 10° NNW 04:52:10 18° NW 04:52:10 18° NW visible
